Location: Tel Aviv
(32.0670°N, 34.7670°E)
Time: 13:37:33
(UTC+02:00)

Explorer 11/Cluster Stage 4 - Visible Passes

Search period start: 19 January 2022 00:00
Search period end: 29 January 2022 00:00
Orbit: 467 x 1255 km, 28.8° (Epoch: 18 January)

Date Brightness Start Highest point End Pass type
(mag) Time Alt. Az. Time Alt. Az. Time Alt. Az.
19 Jan 7.8 04:24:04 23° SSE 04:24:04 23° SSE 04:27:34 10° ESE visible
19 Jan 6.9 06:07:28 10° WSW 06:11:47 54° S 06:17:11 10° E visible
20 Jan 8.0 04:13:45 22° SE 04:13:45 22° SE 04:16:13 10° ESE visible
20 Jan 6.7 05:56:18 10° WSW 06:00:28 55° S 06:05:38 10° E visible
21 Jan 8.4 04:03:22 18° ESE 04:03:22 18° ESE 04:04:54 10° E visible
21 Jan 6.5 05:45:29 12° WSW 05:49:10 56° S 05:54:06 10° E visible
22 Jan 8.8 03:52:55 13° ESE 03:52:55 13° ESE 03:53:34 10° E visible
22 Jan 6.4 05:35:02 18° WSW 05:37:53 56° S 05:42:35 10° E visible
23 Jan 6.3 05:24:32 25° WSW 05:26:36 55° S 05:31:06 10° ESE visible
24 Jan 6.2 05:14:00 35° WSW 05:15:20 53° S 05:19:38 10° ESE visible
25 Jan 6.0 05:03:27 45° SW 05:04:05 51° S 05:08:11 10° ESE visible
26 Jan 6.1 04:52:54 48° S 04:52:54 48° S 04:56:45 10° ESE visible
27 Jan 6.7 04:42:20 38° SSE 04:42:20 38° SSE 04:45:20 10° ESE visible
28 Jan 7.4 04:31:46 27° SE 04:31:46 27° SE 04:33:56 10° ESE visible
